Hourly Weather São Luís

Today, 26 September, Saturday

Time Temperature Precipitation Wind Pressure Humidity
00:00 +27°C° 0 mm 5 mps 759 mmHg 86%
01:00 +27°C° 0 mm 5 mps 758 mmHg 85%
02:00 +27°C° 0 mm 5 mps 757 mmHg 85%
03:00 +28°C° 0 mm 6 mps 757 mmHg 81%
04:00 +28°C° 0 mm 6 mps 757 mmHg 80%
05:00 +28°C° 0 mm 6 mps 758 mmHg 79%
06:00 +28°C° 0 mm 6 mps 758 mmHg 78%
07:00 +28°C° 0 mm 6 mps 758 mmHg 76%
08:00 +29°C° 0 mm 6 mps 759 mmHg 73%
09:00 +29°C° 0 mm 5 mps 759 mmHg 71%
10:00 +30°C° 0.1 mm 5 mps 759 mmHg 70%
11:00 +30°C° 0.1 mm 4 mps 759 mmHg 68%
12:00 +32°C° 0.1 mm 4 mps 758 mmHg 67%
13:00 +32°C° 0.1 mm 4 mps 757 mmHg 66%
14:00 +32°C° 0.1 mm 5 mps 757 mmHg 65%
15:00 +33°C° 0.1 mm 5 mps 756 mmHg 64%
16:00 +32°C° 0 mm 5 mps 756 mmHg 68%
17:00 +30°C° 0 mm 5 mps 756 mmHg 72%
18:00 +29°C° 0 mm 5 mps 756 mmHg 76%
19:00 +28°C° 0 mm 5 mps 756 mmHg 80%
20:00 +28°C° 0 mm 5 mps 757 mmHg 83%
21:00 +27°C° 0 mm 5 mps 757 mmHg 86%
22:00 +27°C° 0 mm 5 mps 757 mmHg 86%
23:00 +27°C° 0 mm 5 mps 757 mmHg 86%

Tomorrow, 27 September, Sunday

Time Temperature Precipitation Wind Pressure Humidity
00:00 +27°C° 0 mm 5 mps 757 mmHg 85%
01:00 +27°C° 0 mm 5 mps 757 mmHg 85%
02:00 +27°C° 0 mm 5 mps 756 mmHg 85%
03:00 +27°C° 0 mm 5 mps 756 mmHg 85%
04:00 +27°C° 0 mm 5 mps 756 mmHg 83%
05:00 +27°C° 0 mm 5 mps 757 mmHg 81%
06:00 +28°C° 0 mm 5 mps 757 mmHg 79%
07:00 +28°C° 0.1 mm 6 mps 757 mmHg 77%
08:00 +29°C° 0.1 mm 6 mps 758 mmHg 74%
09:00 +29°C° 0.1 mm 6 mps 758 mmHg 72%
10:00 +30°C° 0 mm 6 mps 758 mmHg 66%
11:00 +33°C° 0 mm 6 mps 758 mmHg 61%
12:00 +34°C° 0 mm 6 mps 758 mmHg 55%
13:00 +34°C° 0 mm 6 mps 757 mmHg 57%
14:00 +33°C° 0 mm 7 mps 756 mmHg 58%
15:00 +33°C° 0 mm 7 mps 755 mmHg 59%
16:00 +32°C° 0 mm 7 mps 755 mmHg 65%
17:00 +30°C° 0 mm 6 mps 756 mmHg 71%
18:00 +28°C° 0 mm 6 mps 756 mmHg 76%
19:00 +28°C° 0 mm 6 mps 756 mmHg 78%
20:00 +28°C° 0 mm 5 mps 757 mmHg 80%
21:00 +27°C° 0 mm 5 mps 757 mmHg 81%
22:00 +27°C° 0 mm 5 mps 757 mmHg 80%
23:00 +27°C° 0 mm 5 mps 757 mmHg 79%

Day after tomorrow, 28 September, Monday

Time Temperature Precipitation Wind Pressure Humidity
00:00 +27°C° 0 mm 5 mps 758 mmHg 78%
01:00 +27°C° 0 mm 6 mps 757 mmHg 78%
02:00 +27°C° 0 mm 6 mps 756 mmHg 78%
03:00 +27°C° 0 mm 6 mps 756 mmHg 78%
04:00 +27°C° 0 mm 6 mps 756 mmHg 79%
05:00 +27°C° 0 mm 5 mps 756 mmHg 80%
06:00 +27°C° 0 mm 5 mps 756 mmHg 81%
07:00 +28°C° 0 mm 6 mps 757 mmHg 76%
08:00 +29°C° 0 mm 6 mps 758 mmHg 72%
09:00 +30°C° 0 mm 7 mps 758 mmHg 68%
10:00 +32°C° 0 mm 6 mps 758 mmHg 65%
11:00 +33°C° 0 mm 6 mps 758 mmHg 62%
12:00 +33°C° 0 mm 6 mps 757 mmHg 60%
13:00 +33°C° 0 mm 7 mps 757 mmHg 60%
14:00 +33°C° 0 mm 7 mps 756 mmHg 60%
15:00 +33°C° 0 mm 7 mps 755 mmHg 60%
16:00 +32°C° 0 mm 7 mps 755 mmHg 65%
17:00 +30°C° 0 mm 7 mps 756 mmHg 70%
18:00 +29°C° 0 mm 7 mps 756 mmHg 75%
19:00 +29°C° 0 mm 7 mps 756 mmHg 76%
20:00 +28°C° 0 mm 6 mps 757 mmHg 77%
21:00 +28°C° 0 mm 6 mps 757 mmHg 79%
22:00 +28°C° 0 mm 6 mps 757 mmHg 80%
23:00 +28°C° 0 mm 6 mps 757 mmHg 80%

29 September, Tuesday

Time Temperature Precipitation Wind Pressure Humidity
00:00 +28°C° 0 mm 6 mps 757 mmHg 81%
01:00 +28°C° 0 mm 6 mps 757 mmHg 81%
02:00 +28°C° 0 mm 6 mps 756 mmHg 82%
03:00 +28°C° 0 mm 6 mps 756 mmHg 82%
04:00 +28°C° 0 mm 6 mps 756 mmHg 82%
05:00 +28°C° 0 mm 7 mps 756 mmHg 81%
06:00 +28°C° 0 mm 7 mps 756 mmHg 81%
07:00 +29°C° 0.1 mm 7 mps 757 mmHg 77%
08:00 +29°C° 0.1 mm 7 mps 758 mmHg 72%
09:00 +30°C° 0.1 mm 7 mps 759 mmHg 68%
10:00 +32°C° 0.1 mm 7 mps 758 mmHg 65%
11:00 +33°C° 0.1 mm 7 mps 758 mmHg 62%
12:00 +34°C° 0.1 mm 7 mps 757 mmHg 59%
13:00 +33°C° 0 mm 7 mps 757 mmHg 59%
14:00 +33°C° 0 mm 8 mps 756 mmHg 59%
15:00 +33°C° 0 mm 8 mps 756 mmHg 59%
16:00 +32°C° 0 mm 7 mps 756 mmHg 63%
17:00 +30°C° 0 mm 7 mps 756 mmHg 67%
18:00 +29°C° 0 mm 6 mps 756 mmHg 72%
19:00 +29°C° 0 mm 6 mps 756 mmHg 75%
20:00 +28°C° 0 mm 6 mps 757 mmHg 78%
21:00 +28°C° 0 mm 6 mps 757 mmHg 81%
22:00 +28°C° 0 mm 6 mps 757 mmHg 80%
23:00 +28°C° 0 mm 6 mps 757 mmHg 79%

30 September, Wednesday

Time Temperature Precipitation Wind Pressure Humidity
00:00 +29°C° 0 mm 7 mps 757 mmHg 78%
01:00 +28°C° 0 mm 7 mps 757 mmHg 78%
02:00 +28°C° 0 mm 7 mps 756 mmHg 79%
03:00 +28°C° 0 mm 7 mps 756 mmHg 79%
04:00 +28°C° 0 mm 7 mps 756 mmHg 77%
05:00 +28°C° 0 mm 7 mps 756 mmHg 76%
06:00 +29°C° 0 mm 8 mps 757 mmHg 75%
07:00 +29°C° 0 mm 7 mps 757 mmHg 71%
08:00 +30°C° 0 mm 7 mps 758 mmHg 68%
09:00 +32°C° 0 mm 7 mps 759 mmHg 64%
10:00 +32°C° 0 mm 7 mps 758 mmHg 62%
11:00 +33°C° 0 mm 6 mps 758 mmHg 60%
12:00 +34°C° 0 mm 6 mps 757 mmHg 57%
13:00 +34°C° 0 mm 7 mps 757 mmHg 57%
14:00 +34°C° 0 mm 8 mps 756 mmHg 57%
15:00 +34°C° 0 mm 8 mps 756 mmHg 57%
16:00 +33°C° 0 mm 7 mps 756 mmHg 62%
17:00 +30°C° 0 mm 7 mps 756 mmHg 68%
18:00 +29°C° 0 mm 6 mps 756 mmHg 73%
19:00 +29°C° 0 mm 6 mps 756 mmHg 75%
20:00 +28°C° 0 mm 6 mps 757 mmHg 77%
21:00 +28°C° 0 mm 6 mps 757 mmHg 80%
22:00 +28°C° 0 mm 6 mps 757 mmHg 79%
23:00 +28°C° 0 mm 6 mps 757 mmHg 77%

1 October, Thursday

Time Temperature Precipitation Wind Pressure Humidity
00:00 +28°C° 0 mm 6 mps 757 mmHg 76%
01:00 +28°C° 0 mm 6 mps 756 mmHg 76%
02:00 +28°C° 0 mm 7 mps 756 mmHg 77%
03:00 +28°C° 0 mm 7 mps 756 mmHg 77%
04:00 +28°C° 0 mm 7 mps 756 mmHg 78%
05:00 +28°C° 0 mm 7 mps 756 mmHg 78%
06:00 +28°C° 0 mm 7 mps 756 mmHg 78%
07:00 +28°C° 0 mm 7 mps 757 mmHg 74%
08:00 +29°C° 0 mm 6 mps 758 mmHg 70%
09:00 +30°C° 0 mm 5 mps 759 mmHg 65%
10:00 +32°C° 0 mm 6 mps 758 mmHg 60%
11:00 +34°C° 0 mm 6 mps 758 mmHg 55%
12:00 +35°C° 0 mm 6 mps 757 mmHg 49%
13:00 +35°C° 0 mm 7 mps 756 mmHg 50%
14:00 +35°C° 0 mm 7 mps 756 mmHg 52%
15:00 +34°C° 0 mm 7 mps 755 mmHg 53%
16:00 +33°C° 0 mm 7 mps 755 mmHg 59%
17:00 +30°C° 0 mm 6 mps 755 mmHg 65%
18:00 +29°C° 0 mm 6 mps 755 mmHg 71%
19:00 +28°C° 0 mm 5 mps 756 mmHg 74%
20:00 +28°C° 0 mm 5 mps 756 mmHg 77%
21:00 +27°C° 0 mm 5 mps 757 mmHg 80%
22:00 +27°C° 0 mm 5 mps 756 mmHg 81%
23:00 +27°C° 0 mm 5 mps 756 mmHg 81%
Show more